[Date Prev][Date Next][Thread Prev][Thread Next] - [Date Index][Thread Index][Author Index]

2 Line ISS Keps 10-7



ISS
1 25544U 98067A   01280.15691753  .00060610  00000-0  69568-3 0  5635
2 25544  51.6390 245.3146 0007345 173.2559 297.4719 15.61443059164550


----
Via the sarex mailing list at AMSAT.ORG courtesy of AMSAT-NA.
To unsubscribe, send "unsubscribe sarex" to Majordomo@amsat.org



AMSAT Top AMSAT Home